Regional Weather Roundup
Issued by NWS Cleveland, OH

Home | Current Version | Previous Version | Graphics & Text | Print | Product List | Glossary On
Versions: 1 2 3 4 5 6 7 8 9 10 11 12 13 14 15 16 17 18 19 20 21 22 23 24 25 26 27 28 29 30 31 32 33 34 35 36 37 38 39 40 41 42 43 44 45 46 47 48 49 50
000
ASUS41 KCLE 211610
RWRCLE
OHIO REGIONAL WEATHER ROUNDUP
NATIONAL WEATHER SERVICE CLEVELAND, OH
1100 AM EST SAT JAN 21 2017

NOTE: "FAIR" INDICATES FEW OR NO CLOUDS BELOW 12,000 FEET WITH NO
SIGNIFICANT WEATHER AND/OR OBSTRUCTIONS TO VISIBILITY.

OHZ001>008-015>018-024>027-034-035-043-044-211700-
   NORTHWEST OHIO

CITY           SKY/WX    TMP DP  RH WIND       PRES   REMARKS
DEFIANCE       SUNNY     52  48  86 S9        29.66F
FINDLAY        MOSUNNY   55  49  80 S10       29.68S
TOLEDO EXPRESS SUNNY     52  50  93 S8        29.67S
TOLEDO EXEC    MOSUNNY   56  51  84 S9        29.69R
LIMA           PTSUNNY   53  51  93 S8        29.68S
$$

OHZ009>014-019>023-028>033-038-089-211700-
   NORTHEAST OHIO

CITY           SKY/WX    TMP DP  RH WIND       PRES   REMARKS
CLE-HOPKINS    PTSUNNY   60  50  69 S12       29.74F
CLE-LAKEFRONT  SUNNY     58  50  75 S10       29.71S
CUY CO. ARPT   MOSUNNY   59  52  77 S12       29.73R
LORAIN-ELYRIA  MOSUNNY   56  49  77 S12       29.71F
ASHTABULA      MOSUNNY   53  50  89 S10       29.75S
AKRON-CANTON   MOSUNNY   56  49  77 S9        29.74F
WOOSTER        SUNNY     53  49  86 S10       29.74S
MANSFIELD      SUNNY     56  50  80 S8        29.71F
YOUNGSTOWN     PTSUNNY   55  49  80 S9        29.77S
$$

OHZ042-051>053-060>062-070>072-077>081-211700-
  SOUTHWEST OHIO

CITY           SKY/WX    TMP DP  RH WIND       PRES   REMARKS
CINC-COVINGTON CLOUDY    57  52  83 S10       29.71S
CINC-LUNKEN    CLOUDY    50  50 100 W3        29.73F
HAMILTON       CLOUDY    56  53  90 E5        29.72F
DAYTON         CLOUDY    54  50  86 S10       29.71S
WRIGHT-PAT AFB PTSUNNY   55  53  92 S9        29.71S
DAYTON GENERAL NOT AVBL
WILMINGTON     MOSUNNY   57  52  83 S10       29.73S
$$

OHZ036-037-039>041-045>050-054>059-063>069-073>076-082>088-211700-
  CENTRAL AND SOUTHEAST OHIO

CITY           SKY/WX    TMP DP  RH WIND       PRES   REMARKS
COLUMBUS       CLOUDY    59  50  72 S9        29.74R
OSU AIRPORT    MOSUNNY   54  51  90 S10       29.73S
BOLTON FIELD   SUNNY     54  52  94 S9        29.75R
RICKENBACK AFB   N/A     56  51  85 S12       29.74S
NEWARK         MOSUNNY   56  50  80 S10       29.74S
MARION         MOSUNNY   56  50  80 S13       29.71F
LANCASTER      MOSUNNY   60  52  74 S9        29.76R
ZANESVILLE     MOSUNNY   55  49  80 S9        29.77R
NEW PHILLY     NOT AVBL
$$



USA.gov is the U.S. government's official web portal to all federal, state and local government web resources and services.